THOR ABLESTAR DEB, 337

Orbit data source: Space-Track

THOR ABLESTAR DEB, 337 is space debris in LEO originally from a launch on Thu, 29 Jun 1961 UTC launched from the Air Force Eastern Test Range (AFETR). Debris objects in space refer to the collection of defunct objects orbiting the Earth. Examples of debris include non-operational satellites, rocket bodies, and fragments generated from explosions, collisions, or faulty payload assembly.

Loading next visibility...
Identifier
337, 1961-015DP
Orbit
LEO
Country
Flag of USUS
Related business
Manufacturer
Unknown
Mission
Spacecraft
Bus & Motor
Unknown
Mass
Unknown
Launch date (UTC)
1961-06-29 (64 years ago)
Launch vehicle
Unknown
Launch site
Air Force Eastern Test Range (AFETR)
Object type
Payload
Rocket body
Debris
Shape & HBR
Unknown
Radar Cross Section
Small (<0.1 m²)

Expand to show TLE details & history
Last TLE update: 10 hours ago

TLE from 10 hours ago
0 THOR ABLESTAR DEB
1 00337U 61015DP  25258.29178198  .00000253  00000-0  32283-3 0  9994
2 00337  67.0079 211.6552 0095426  99.0144 262.1744 13.76157084206959
Epoch: 2025-09-15T07:00Z
TLE epoch observation values (Epoch: 2025-09-15T07:00:09.963Z)
Latitude
0.00006°
Longitude
112.11517°
Altitude
989.841 km
Speed
7.352 km/s
True Right ascension
14h 06m 37s
True Declination
0° 00' 00"
Sunlit
Object was in daylight at epoch
Visualization orbit readout
Latitude
Unknown
Longitude
Unknown
Altitude
Unknown
Speed
Unknown
Apparent Right ascension
Unknown
Apparent Declination
Unknown
Sunlit
N/A
Visualization observer readout
Local Sidereal Time
10:03:15
Azimuth
Unknown
Elevation
Unknown
Doppler factor
Unknown
Orbital elements
Apogee altitude
1,046.107 km
Perigee altitude
905.753 km
Semi-major axis
7,354.067 km
Eccentricity
0.00954
Inclination
67.0079°
RAAN
211.6552°
Arg. of periapsis
99.0144°
True anomaly
261.0929°
Mean anomaly
262.1744°
Eccentric anomaly
261.63347°
Mean motion
3.44153 °/min
Orbital period
104.6 mins
BSTAR
0.00032283
Loading maneuver chart data...
Computing Atmospheric mass density...

Documentation

Showing up to 5 results
|